THORAD DELTA 1 DEB, 8157

Orbit data source: Space-Track

THORAD DELTA 1 DEB, 8157 is space debris in SSO originally from a launch on Fri, 15 Nov 1974 UTC launched from the Air Force Western Test Range (AFWTR). Debris objects in space refer to the collection of defunct objects orbiting the Earth. Examples of debris include non-operational satellites, rocket bodies, and fragments generated from explosions, collisions, or faulty payload assembly.

Loading next visibility...
Identifier
8157, 1974-089X
Orbit
SSO
Country
Flag of USUS
Related business
Manufacturer
Unknown
Mission
Spacecraft
Bus & Motor
Unknown
Mass
Unknown
Launch date (UTC)
1974-11-15 (51 years ago)
Launch vehicle
Unknown
Launch site
Air Force Western Test Range (AFWTR)
Object type
Payload
Rocket body
Debris
Shape & HBR
Unknown shape, 0.1 m
Radar Cross Section
Small (<0.1 m²)

Expand to show TLE details & history
Last TLE update: 3 days ago

TLE from 3 days ago
0 THORAD DELTA 1 DEB
1 08157U 74089X   26127.58980172 -.00000001  00000-0  30204-3 0  9991
2 08157 102.1388 132.9713 0132554 263.0625 218.5108 12.47533797342783
Epoch: 2026-05-07T14:09Z
TLE epoch observation values (Epoch: 2026-05-07T14:09:18.868Z)
Latitude
57.35439°
Longitude
-105.27258°
Altitude
1,566.236 km
Speed
7.053 km/s
True Right ascension
22h 09m 57s
True Declination
57° 12' 50"
Sunlit
Object was in daylight at epoch
Visualization orbit readout
Latitude
Unknown
Longitude
Unknown
Altitude
Unknown
Speed
Unknown
Apparent Right ascension
Unknown
Apparent Declination
Unknown
Sunlit
N/A
Visualization observer readout
Local Sidereal Time
19:34:36
Azimuth
Unknown
Elevation
Unknown
Doppler factor
Unknown
Orbital elements
Apogee altitude
1,576.462 km
Perigee altitude
1,368.338 km
Semi-major axis
7,850.537 km
Eccentricity
0.01326
Inclination
102.1388°
RAAN
132.9713°
Arg. of periapsis
263.0625°
True anomaly
217.57716°
Mean anomaly
218.5108°
Eccentric anomaly
218.04277°
Mean motion
3.12028 °/min
Orbital period
115.37 mins
BSTAR
0.00030204
Loading maneuver chart data...
Computing Atmospheric mass density...

Documentation

Showing up to 5 results
|